Humidity-temperature Sensor

Selected Measurement Type: Air Temperature

 
Air Temperature [°C]     6 entries per hour
Showing data from 8/31/2018 (23:50:00 Z) to 8/24/2018 (00:01:00 Z)
Previous Next [ Day | 3-Days | 7-Days ]
First Last
Prev [ Day | 3-Days | 7-Days ] Next
First Last

Start Time:     :
End Time:     :     
Time (in GMT) :00 :50 :40 :30 :20 :10
Previous Next [ Day | 3-Days | 7-Days ]
First Last
Prev [ Day | 3-Days | 7-Days ] Next
First Last


123 => good data
MM => data is determined as missing
-- => data not received/configured
Back to Top Back to Top
9/1/2018 00:00 to 23:10 -- 23.17 23.16 23.05 23.02 23.12
8/31/2018 23:00 to 22:10 23.10 23.15 23.15 23.16 23.31 23.24
8/31/2018 22:00 to 21:10 23.30 23.38 23.22 23.22 23.19 23.20
8/31/2018 21:00 to 20:10 23.05 22.98 22.82 22.29 22.20 22.52
8/31/2018 20:00 to 19:10 22.12 22.26 22.49 22.31 22.70 22.71
8/31/2018 19:00 to 18:10 22.38 22.84 23.00 22.80 23.04 22.86
8/31/2018 18:00 to 17:10 22.50 22.71 22.79 22.90 22.86 23.02
8/31/2018 17:00 to 16:10 23.26 23.39 23.18 22.98 22.78 22.73
8/31/2018 16:00 to 15:10 23.20 23.40 23.23 23.19 23.16 23.24
8/31/2018 15:00 to 14:10 23.26 23.26 23.06 23.15 22.95 22.91
8/31/2018 14:00 to 13:10 23.07 22.92 22.85 22.84 22.88 22.95
8/31/2018 13:00 to 12:10 22.87 23.03 22.88 22.93 22.83 22.62
8/31/2018 12:00 to 11:10 22.64 22.74 22.79 22.88 22.76 22.85
8/31/2018 11:00 to 10:10 22.78 22.73 22.75 22.79 22.85 22.86
8/31/2018 10:00 to 9:10 22.79 22.75 22.89 22.84 22.74 22.80
8/31/2018 09:00 to 8:10 22.85 22.99 22.80 22.82 22.90 22.91
8/31/2018 08:00 to 7:10 22.89 22.94 23.08 23.08 23.19 23.10
8/31/2018 07:00 to 6:10 23.02 23.03 23.15 22.78 23.04 23.24
8/31/2018 06:00 to 5:10 23.24 23.14 23.26 23.15 23.22 23.28
8/31/2018 05:00 to 4:10 23.30 23.36 23.36 23.18 23.36 23.26
8/31/2018 04:00 to 3:10 23.19 23.21 23.22 23.13 23.07 23.03
8/31/2018 03:00 to 2:10 23.04 22.62 22.77 22.57 22.49 22.43
8/31/2018 02:00 to 1:10 22.39 22.50 22.57 22.62 22.39 22.57
8/31/2018 01:00 to 0:10 22.54 22.49 22.57 22.50 22.50 22.44
8/31/2018 00:00 to 23:10 22.38 22.74 22.79 23.04 22.82 22.94
8/30/2018 23:00 to 22:10 23.12 23.16 23.25 23.24 23.17 23.23
8/30/2018 22:00 to 21:10 23.09 23.07 23.08 23.10 23.00 23.08
8/30/2018 21:00 to 20:10 22.99 23.02 23.00 22.97 22.95 22.93
8/30/2018 20:00 to 19:10 22.97 22.99 22.94 22.98 22.93 22.98
8/30/2018 19:00 to 18:10 23.05 23.10 23.00 23.10 23.24 23.24
8/30/2018 18:00 to 17:10 23.33 23.22 23.15 23.03 22.90 22.88
8/30/2018 17:00 to 16:10 22.84 22.90 22.82 22.80 22.71 22.68
8/30/2018 16:00 to 15:10 22.65 22.99 23.27 23.19 23.09 23.05
8/30/2018 15:00 to 14:10 23.20 22.97 22.76 22.87 22.70 22.77
8/30/2018 14:00 to 13:10 22.78 22.69 22.82 22.98 23.13 22.81
8/30/2018 13:00 to 12:10 23.28 23.18 23.03 23.11 23.12 22.98
8/30/2018 12:00 to 11:10 22.96 22.95 22.99 22.98 23.03 22.58
8/30/2018 11:00 to 10:10 22.80 22.76 22.87 22.62 22.57 22.06
8/30/2018 10:00 to 9:10 22.12 21.91 21.93 21.83 21.94 21.81
8/30/2018 09:00 to 8:10 21.48 21.66 21.91 22.05 22.06 22.37
8/30/2018 08:00 to 7:10 22.37 22.31 22.54 22.55 22.51 22.72
8/30/2018 07:00 to 6:10 22.74 22.86 22.47 22.15 22.51 22.75
8/30/2018 06:00 to 5:10 23.17 23.19 23.11 22.97 23.09 22.99
8/30/2018 05:00 to 4:10 23.02 23.03 23.18 22.86 22.87 22.74
8/30/2018 04:00 to 3:10 22.81 22.81 22.78 22.63 22.64 22.81
8/30/2018 03:00 to 2:10 22.45 22.39 22.41 22.48 21.99 22.42
8/30/2018 02:00 to 1:10 22.40 22.23 22.35 22.28 22.12 22.53
8/30/2018 01:00 to 0:10 22.66 22.59 22.75 22.86 22.68 22.66
8/30/2018 00:00 to 23:10 22.41 22.28 22.43 22.58 22.45 22.53
8/29/2018 23:00 to 22:10 22.50 22.08 22.09 22.70 22.59 22.70
8/29/2018 22:00 to 21:10 22.53 22.78 22.54 22.24 21.73 21.59
8/29/2018 21:00 to 20:10 21.69 22.50 22.17 22.03 21.77 21.45
8/29/2018 20:00 to 19:10 21.89 22.04 21.81 21.73 21.52 21.89
8/29/2018 19:00 to 18:10 22.10 22.77 22.49 22.56 22.51 22.96
8/29/2018 18:00 to 17:10 22.92 22.62 22.50 22.24 22.03 22.47
8/29/2018 17:00 to 16:10 22.41 22.32 22.51 22.58 22.71 22.31
8/29/2018 16:00 to 15:10 21.93 22.14 21.99 22.23 22.01 21.74
8/29/2018 15:00 to 14:10 21.94 21.64 21.21 21.45 21.86 21.99
8/29/2018 14:00 to 13:10 22.10 21.89 21.78 21.75 21.62 21.60
8/29/2018 13:00 to 12:10 21.60 21.53 22.38 22.40 22.62 22.12
8/29/2018 12:00 to 11:10 21.51 21.68 21.52 21.99 22.10 22.33
8/29/2018 11:00 to 10:10 22.41 22.36 22.37 22.32 22.40 22.29
8/29/2018 10:00 to 9:10 22.18 22.16 21.79 21.49 21.46 21.65
8/29/2018 09:00 to 8:10 21.78 22.06 22.26 22.02 22.04 22.16
8/29/2018 08:00 to 7:10 22.19 22.33 22.59 22.53 22.44 22.37
8/29/2018 07:00 to 6:10 22.17 22.35 22.17 22.10 21.45 21.49
8/29/2018 06:00 to 5:10 22.24 22.36 22.32 22.26 22.42 22.25
8/29/2018 05:00 to 4:10 21.73 21.95 22.41 22.40 21.83 22.24
8/29/2018 04:00 to 3:10 22.04 21.90 22.02 22.36 22.45 22.63
8/29/2018 03:00 to 2:10 22.80 22.69 22.57 22.70 22.79 22.77
8/29/2018 02:00 to 1:10 22.85 22.69 22.63 22.44 22.54 22.53
8/29/2018 01:00 to 0:10 22.52 22.28 22.67 22.70 22.84 22.81
8/29/2018 00:00 to 23:10 22.89 22.92 22.41 22.48 22.85 22.90
8/28/2018 23:00 to 22:10 23.08 22.94 23.07 22.95 23.14 22.90
8/28/2018 22:00 to 21:10 22.93 22.91 22.88 22.76 22.73 22.85
8/28/2018 21:00 to 20:10 22.77 22.73 22.93 22.88 22.74 22.88
8/28/2018 20:00 to 19:10 22.82 22.86 22.83 22.83 22.95 22.78
8/28/2018 19:00 to 18:10 22.76 22.71 22.82 22.84 22.84 22.77
8/28/2018 18:00 to 17:10 22.69 22.71 22.48 22.40 22.43 22.17
8/28/2018 17:00 to 16:10 21.65 21.53 22.06 21.75 21.85 22.46
8/28/2018 16:00 to 15:10 22.59 23.03 22.77 22.88 22.93 23.00
8/28/2018 15:00 to 14:10 23.26 23.27 23.26 23.28 23.47 23.24
8/28/2018 14:00 to 13:10 23.32 23.36 23.25 23.07 22.84 23.08
8/28/2018 13:00 to 12:10 22.75 22.86 22.79 22.96 22.76 22.19
8/28/2018 12:00 to 11:10 22.60 22.50 22.68 22.75 22.76 22.70
8/28/2018 11:00 to 10:10 22.56 22.87 22.76 22.89 22.79 22.59
8/28/2018 10:00 to 9:10 22.70 22.76 22.29 22.46 22.28 22.35
8/28/2018 09:00 to 8:10 22.95 22.71 22.78 22.69 22.79 22.81
8/28/2018 08:00 to 7:10 22.88 23.03 22.86 22.94 23.05 22.91
8/28/2018 07:00 to 6:10 23.26 23.10 23.00 22.93 23.06 23.10
8/28/2018 06:00 to 5:10 23.02 23.12 23.09 22.94 22.96 22.87
8/28/2018 05:00 to 4:10 22.90 22.26 22.22 22.38 22.62 22.50
8/28/2018 04:00 to 3:10 22.29 22.07 22.41 22.21 22.02 22.17
8/28/2018 03:00 to 2:10 22.18 22.19 22.75 22.65 22.66 22.69
8/28/2018 02:00 to 1:10 22.80 22.80 22.89 22.80 22.78 22.82
8/28/2018 01:00 to 0:10 22.86 22.91 22.80 23.01 23.01 23.28
8/28/2018 00:00 to 23:10 23.27 23.24 23.40 23.24 23.31 23.33
8/27/2018 23:00 to 22:10 23.34 23.37 23.26 23.46 23.30 23.42
8/27/2018 22:00 to 21:10 23.40 23.38 23.45 23.47 23.46 23.50
8/27/2018 21:00 to 20:10 23.39 23.42 23.46 23.49 23.42 23.36
8/27/2018 20:00 to 19:10 23.40 23.58 23.39 23.37 23.38 23.37
8/27/2018 19:00 to 18:10 23.36 23.36 23.42 23.47 23.43 23.33
8/27/2018 18:00 to 17:10 23.35 23.38 23.18 23.19 23.35 23.28
8/27/2018 17:00 to 16:10 23.26 23.18 23.34 23.14 23.16 23.27
8/27/2018 16:00 to 15:10 23.26 23.09 23.02 22.97 22.95 22.63
8/27/2018 15:00 to 14:10 22.62 22.63 22.64 22.83 22.63 22.79
8/27/2018 14:00 to 13:10 22.71 22.86 22.84 22.97 22.88 22.83
8/27/2018 13:00 to 12:10 22.82 22.73 22.62 22.73 22.51 22.31
8/27/2018 12:00 to 11:10 22.21 22.14 22.11 22.04 21.96 21.84
8/27/2018 11:00 to 10:10 21.90 21.91 22.06 22.32 22.62 22.82
8/27/2018 10:00 to 9:10 22.97 23.07 22.94 22.98 23.01 23.10
8/27/2018 09:00 to 8:10 22.89 22.99 22.91 22.98 23.04 23.09
8/27/2018 08:00 to 7:10 23.23 23.14 23.07 23.03 23.18 23.26
8/27/2018 07:00 to 6:10 23.27 23.11 23.05 23.07 23.02 23.08
8/27/2018 06:00 to 5:10 22.98 22.98 22.86 22.84 22.76 22.78
8/27/2018 05:00 to 4:10 22.69 22.62 22.65 22.53 22.58 22.57
8/27/2018 04:00 to 3:10 22.60 22.65 22.63 22.56 22.70 22.59
8/27/2018 03:00 to 2:10 22.84 23.00 22.90 22.97 22.98 22.96
8/27/2018 02:00 to 1:10 23.20 22.98 23.09 22.99 23.07 22.93
8/27/2018 01:00 to 0:10 22.97 23.00 22.91 22.97 23.00 22.94
8/27/2018 00:00 to 23:10 22.90 23.04 23.02 23.04 22.93 22.95
8/26/2018 23:00 to 22:10 23.05 22.96 23.01 22.83 22.96 22.74
8/26/2018 22:00 to 21:10 22.83 22.85 22.75 22.95 22.89 22.88
8/26/2018 21:00 to 20:10 22.94 22.93 22.98 22.96 22.92 22.92
8/26/2018 20:00 to 19:10 22.98 22.84 23.00 22.84 22.83 22.89
8/26/2018 19:00 to 18:10 22.88 22.98 22.86 22.81 23.04 22.93
8/26/2018 18:00 to 17:10 22.91 22.92 22.89 22.97 23.08 22.91
8/26/2018 17:00 to 16:10 22.77 22.88 22.86 22.88 22.84 23.10
8/26/2018 16:00 to 15:10 22.99 22.99 23.02 23.07 23.14 22.99
8/26/2018 15:00 to 14:10 23.02 23.16 23.14 23.23 23.11 23.11
8/26/2018 14:00 to 13:10 23.01 22.98 22.84 23.01 22.88 23.03
8/26/2018 13:00 to 12:10 23.04 22.90 22.97 22.85 22.98 22.99
8/26/2018 12:00 to 11:10 22.78 22.84 22.78 22.81 22.88 22.82
8/26/2018 11:00 to 10:10 22.81 22.91 22.89 22.86 22.78 22.88
8/26/2018 10:00 to 9:10 22.76 22.68 22.80 22.60 22.70 22.65
8/26/2018 09:00 to 8:10 22.73 22.53 22.86 22.67 22.65 22.83
8/26/2018 08:00 to 7:10 22.63 22.66 22.68 22.70 22.76 22.69
8/26/2018 07:00 to 6:10 22.70 22.78 22.79 22.68 22.73 22.79
8/26/2018 06:00 to 5:10 22.84 22.81 22.76 22.76 22.84 22.88
8/26/2018 05:00 to 4:10 22.95 22.73 22.79 22.89 22.69 22.72
8/26/2018 04:00 to 3:10 22.65 22.62 22.79 22.88 22.76 22.69
8/26/2018 03:00 to 2:10 22.70 22.70 22.69 22.57 22.84 22.85
8/26/2018 02:00 to 1:10 22.88 22.82 22.81 22.82 22.84 22.68
8/26/2018 01:00 to 0:10 22.83 22.65 22.62 22.44 22.42 22.30
8/26/2018 00:00 to 23:10 22.39 22.34 22.18 22.40 22.56 22.50
8/25/2018 23:00 to 22:10 22.50 22.64 22.75 22.77 22.85 22.79
8/25/2018 22:00 to 21:10 22.70 22.69 22.53 22.53 22.56 22.63
8/25/2018 21:00 to 20:10 22.43 22.50 22.55 22.58 22.63 22.63
8/25/2018 20:00 to 19:10 22.58 22.54 22.75 22.57 22.60 22.63
8/25/2018 19:00 to 18:10 22.46 22.63 22.49 22.52 22.50 22.68
8/25/2018 18:00 to 17:10 22.64 22.75 22.50 22.52 22.62 22.42
8/25/2018 17:00 to 16:10 22.49 22.56 22.48 22.52 22.42 22.52
8/25/2018 16:00 to 15:10 22.42 22.41 22.42 22.53 22.37 22.29
8/25/2018 15:00 to 14:10 22.30 22.39 22.32 22.37 22.26 22.31
8/25/2018 14:00 to 13:10 22.27 22.36 22.28 22.23 22.16 21.97
8/25/2018 13:00 to 12:10 22.04 22.00 21.93 21.92 22.09 22.20
8/25/2018 12:00 to 11:10 22.14 22.19 21.99 22.19 22.33 22.18
8/25/2018 11:00 to 10:10 22.11 22.01 21.92 22.01 22.07 22.05
8/25/2018 10:00 to 9:10 22.09 21.98 22.09 22.16 22.20 22.20
8/25/2018 09:00 to 8:10 22.19 21.94 22.14 22.09 21.99 22.02
8/25/2018 08:00 to 7:10 22.07 22.12 21.95 22.18 22.38 22.06
8/25/2018 07:00 to 6:10 22.23 22.25 22.20 22.13 22.19 22.22
8/25/2018 06:00 to 5:10 22.04 22.11 22.15 22.15 22.15 22.22
8/25/2018 05:00 to 4:10 22.15 22.05 22.30 21.97 22.03 22.16
8/25/2018 04:00 to 3:10 22.10 22.24 22.05 22.09 22.10 22.50
8/25/2018 03:00 to 2:10 22.19 22.26 22.00 22.25 22.28 22.10
8/25/2018 02:00 to 1:10 22.04 21.94 21.83 21.38 21.33 21.45
8/25/2018 01:00 to 0:10 21.64 22.23 22.38 22.21 22.29 22.17
8/25/2018 00:00 to 23:10 22.23 22.26 22.19 22.16 22.20 21.98
8/24/2018 23:00 to 22:10 21.88 22.04 22.41 22.36 22.17 22.05
8/24/2018 22:00 to 21:10 21.59 21.67 21.62 21.62 21.54 21.75
8/24/2018 21:00 to 20:10 21.88 21.65 21.43 21.29 21.26 21.84
8/24/2018 20:00 to 19:10 22.44 22.23 22.03 22.07 22.04 21.96
8/24/2018 19:00 to 18:10 22.05 21.79 21.91 22.15 21.98 22.22
8/24/2018 18:00 to 17:10 22.32 22.23 22.30 22.42 22.30 22.23
8/24/2018 17:00 to 16:10 22.42 22.37 22.27 22.36 22.20 22.22
8/24/2018 16:00 to 15:10 22.21 22.09 22.18 22.10 21.63 21.33
8/24/2018 15:00 to 14:10 21.50 21.94 21.52 22.16 21.98 21.95
8/24/2018 14:00 to 13:10 21.91 22.02 22.08 21.84 21.92 21.84
8/24/2018 13:00 to 12:10 22.18 22.08 21.98 21.98 21.72 21.67
8/24/2018 12:00 to 11:10 22.00 21.97 22.00 21.92 21.99 21.92
8/24/2018 11:00 to 10:10 22.11 22.05 21.98 22.06 22.13 22.22
8/24/2018 10:00 to 9:10 22.12 22.15 22.17 22.15 22.11 21.95
8/24/2018 09:00 to 8:10 22.19 22.19 22.28 22.35 22.24 22.22
8/24/2018 08:00 to 7:10 22.33 22.59 22.37 22.42 22.51 22.56
8/24/2018 07:00 to 6:10 22.57 22.49 22.23 22.32 22.03 22.16
8/24/2018 06:00 to 5:10 22.15 22.57 22.27 22.23 22.22 22.04
8/24/2018 05:00 to 4:10 22.12 22.08 22.16 22.39 22.23 22.16
8/24/2018 04:00 to 3:10 22.07 21.95 21.12 21.78 21.93 21.78
8/24/2018 03:00 to 2:10 22.29 22.10 21.74 21.43 21.69 22.05
8/24/2018 02:00 to 1:10 21.37 21.07 21.92 21.34 21.22 21.61
8/24/2018 01:00 to 0:10 22.08 21.85 21.67 21.50 21.83 21.83